Home   Weather   Hilo   Past weeks

Flag for USA Past Weather in Hilo, Hawaii, USA — Yesterday and Last 2 Weeks

Now
74 °F

Broken clouds.


Feels Like: 75 °F
Forecast: 65 / 80 °F
Wind: 5 mph from Southwest

Location: Hilo International Airport

Current Time: Apr 23, 2017 at 8:21:34 am

Latest Report: Apr 23, 2017 at 7:53 am


Visibility: 10 mi

Pressure: 30.11 "Hg

Humidity: 74%

Dew Point: 65 °F

Location of HiloLocation

Past Weather in Hilo — Graph

°F

Hilo Temperature Yesterday

Maximum temperature yesterday: 83 °F (at 10:53 am)
Minimum temperature yesterday: 67 °F (at 12:53 am)
Average temperature yesterday: 75 °F

High & Low Weather Summary for the Past Weeks

 TemperatureHumidityPressure
High84 °F (Apr 9, 11:53 am)100% (Apr 12, 4:53 am)30.15 "Hg (Apr 12, 4:53 am)
Low64 °F (Apr 20, 3:53 am)49% (Apr 9, 12:53 pm)29.92 "Hg (Apr 9, 3:53 pm)
Average73 °F80%30.03 "Hg
* Reported Apr 8 6:08 am — Apr 23 6:53 am, Hilo, Weather by CustomWeather, © 2017

Note: Actual official high and low records may vary slightly from our data, if they occured in-between our weather recording intervals... More about our weather records

Advertising

Hilo Weather History for the Previous 24 Hours

Scroll right to see more
 ConditionsComfort  
Time TempWeatherWind HumidityBarometerVisibility
6:53 am
Sun, Apr 23
69 °FBroken clouds.6 mph81%30.09 "Hg10 mi
5:53 am67 °FPassing clouds.5 mph87%30.06 "Hg10 mi
4:53 am67 °FPassing clouds.5 mph90%30.04 "Hg10 mi
3:53 am68 °FClear.3 mph87%30.03 "Hg10 mi
2:53 am69 °FPassing clouds.6 mph87%30.03 "Hg10 mi
1:53 am70 °FOvercast.No wind90%30.04 "Hg10 mi
12:53 am71 °FPassing clouds.7 mph87%30.06 "Hg10 mi
11:53 pm
Sat, Apr 22
72 °FPassing clouds.5 mph87%30.08 "Hg10 mi
10:53 pm72 °FMostly cloudy.6 mph91%30.08 "Hg10 mi
10:06 pm72 °FPassing clouds.5 mph94%30.09 "Hg10 mi
9:53 pm72 °FPassing clouds.6 mph93%30.09 "Hg10 mi
8:53 pm72 °FHeavy rain. Fog.5 mph93%30.08 "Hg3 mi
7:53 pm74 °FLight rain. Mostly cloudy.5 mph88%30.06 "Hg8 mi
6:53 pm76 °FPassing clouds.No wind77%30.03 "Hg10 mi
5:53 pm77 °FScattered clouds.6 mph71%30.01 "Hg10 mi
4:53 pm81 °FBroken clouds.6 mph65%30.00 "Hg10 mi
3:53 pm80 °FBroken clouds.12 mph67%30.00 "Hg10 mi
2:53 pm83 °FBroken clouds.13 mph61%30.00 "Hg10 mi
1:53 pm83 °FPartly sunny.6 mph57%30.02 "Hg10 mi
12:53 pm83 °FPartly sunny.10 mph59%30.03 "Hg10 mi
11:53 am83 °FPartly sunny.12 mph59%30.05 "Hg10 mi
10:53 am83 °FPartly sunny.9 mph55%30.07 "Hg10 mi
9:53 am82 °FPartly sunny.6 mph55%30.09 "Hg10 mi
8:53 am80 °FBroken clouds.5 mph56%30.10 "Hg10 mi
Weather by CustomWeather, © 2017

See weather overviewHow to use our weather pages